Wednesday, August 20, 2014
22:31 UTC
  |  Log In   |  Register Free
Airport Search:

Foothills Regional Airport
(KMRN)

Foothills Regional Airport Diagram
No Airport Diagram Available

FAA data valid effective July 24, 2014 until September 18, 2014 (unless otherwise noted).

 
 
 
 
 
 
 
 
 
 
 
 
 
 

Current Aviation Weather for Foothills Regional Airport (KMRN)

The most recent METAR observation for KMRN was updated at: 1835 UTC
METAR Summary (Translated METAR)
KMRN
281835Z AUTO 30006G17KT 10SM BKN060 28/12 A2993 RMK AO2 T02760124
KHKY
(11.8 nm SE from KMRN)
281753Z 29011G20KT 10SM CLR 29/14 A2987 RMK AO2 SLP089 T02940139 10294 20206 50005
TAF Summary (Translated TAF)
KHKY
(11.8 nm SE from KMRN)
201740Z 2018/2118 23003KT P6SM VCTS SCT050CB BKN250 TEMPO 2018/2020 5SM SHRA BKN040 BKN080 FM210300 00000KT P6SM SCT250
  Airport Weather Conditions for KMRN

 Current Weather at MRN
87° F
Fair
South winds at 4.6 mph
MRN NOAA Radar

Pressure: 30.04 in
Humidity: 48%
Wind: South at 4.6 MPH (4 KT)
Dew Point: 64.9°F
Visibility: 10.00 mi


Airport Weather Forecast for KMRN

Translated METAR and TAF for KMRN
Translated METAR for KMRN (2224 UTC 20 August 2014)
found at http://aviationweather.gov/adds/metars/
 
METAR text: KMRN 202215Z AUTO 25003KT 10SM CLR 30/19 A3006 RMK AO2 T02950187
Conditions at: KMRN (MORGANTON/LENOIR, NC, US) observed 2215 UTC 20 August 2014
Temperature: 29.5°C (85°F)
Dewpoint: 18.7°C (66°F) [RH = 52%]
Pressure (altimeter): 30.06 inches Hg (1018.0 mb)
Winds: from the WSW (250 degrees) at 3 MPH (3 knots; 1.6 m/s)
Visibility: 10 or more miles (16+ km)
Ceiling: at least 12,000 feet AGL
Clouds: sky clear below 12,000 feet AGL
Weather: automated observation with no human augmentation;
there may or may not be significant weather present at this time
Translated TAF for KMRN

There is no translated TAF available for this airport

Find All Airport Services Find A Hotel Find A Rental Car Find A Golf Course Find A Restaurant $100 Hamburger



FBO's on the Field
FBO Company Facility Photos Services Transportation Aviation Fuel Prices: Prices include tax
Catering Weather Repair Courtesy Rental Type 100LL JetA JetA+ MOGAS 8087
 
Foothills Aviation

This FBO has not yet been rated
FS:Shell
Last Updated: Jul-17
Login to update fuel prices
SS:
Contact Foothills AviationMore FBO Information
 
Add another FBO Facility Photos Catering Weather Repair Courtesy Rental Type 100LL JetA JetA+ MOGAS 8087
Services Transportation Aviation Fuel Prices: Prices include tax


GlobalAir.com Airport Resource Center model-print
model-print
model-print
model-print